Temperature
6 7 8 9 9 9 9 9 9 10 11 13 13 12 11 12 11 10 9 9 10 10 10 10 10 9 8 8 8 7 7 7 6 5 5 4 4 3 2 2 1 1 1 0
7 9 9 9 9 9 9 9 9 10 11 13 12 11 11 11 11 10 9 9 10 10 10 10 9 8 8 7 7 6 6 6 5 4 4 3 3 2 2 1 1 0 -0 -0
9 10 10 10 10 10 10 10 11 11 12 12 12 11 10 11 11 11 10 9 10 10 10 10 9 8 8 7 6 5 5 4 4 3 3 3 2 1 1 1 0 -0 -1 -1
9 10 10 11 11 11 11 12 12 12 12 12 10 8 10 11 12 11 11 10 10 10 10 10 9 8 7 6 5 5 4 3 3 3 2 2 1 0 0 -0 -1 -1 -2 -2
8 10 11 12 12 12 12 12 12 11 9 8 9 10 9 11 12 12 11 11 11 11 10 9 8 7 6 5 4 4 3 3 2 2 2 1 0 -0 -1 -1 -1 -2 -2 -3
8 10 10 12 12 12 13 12 12 10 9 8 10 10 8 8 11 11 11 11 11 10 10 8 7 6 5 5 4 3 2 2 2 1 1 0 -0 -1 -1 -2 -2 -3 -3 -4
9 9 9 11 12 13 12 12 11 10 10 9 9 9 7 8 10 11 11 10 10 9 8 7 6 5 4 4 3 2 2 1 1 0 -0 -1 -1 -2 -2 -3 -3 -3 -4 -4
8 9 9 11 12 11 11 10 9 9 9 8 6 6 7 9 9 10 9 9 8 7 6 5 5 4 3 3 2 1 1 1 0 -0 -1 -2 -2 -2 -3 -3 -3 -4 -4 -5
9 9 9 10 11 11 11 9 8 8 9 9 6 6 7 8 8 8 7 7 6 6 5 4 3 3 2 2 1 1 0 -0 -1 -1 -2 -2 -3 -3 -3 -3 -4 -5 -6 -7
8 9 9 9 10 11 12 11 11 10 10 9 7 7 7 7 7 7 6 6 5 5 4 3 2 1 1 1 0 -0 -1 -1 -2 -2 -2 -3 -3 -3 -4 -4 -5 -6 -8 -9
8 9 8 9 10 11 11 11 10 9 9 9 8 8 7 7 6 6 5 4 4 4 3 2 1 0 0 -0 -1 -1 -1 -2 -2 -3 -3 -3 -3 -4 -4 -5 -7 -8 -9 -10
9 8 7 8 10 11 11 10 9 9 7 8 9 8 7 6 6 5 4 3 2 2 1 1 0 -0 -1 -1 -2 -2 -2 -3 -3 -3 -3 -3 -4 -4 -5 -6 -6 -7 -8 -9
11 11 10 9 9 10 10 9 9 9 8 8 7 7 6 6 5 4 3 2 1 1 0 -0 -1 -1 -2 -2 -2 -2 -3 -3 -3 -3 -4 -4 -4 -5 -6 -6 -7 -7 -8 -9
11 11 7 7 7 9 9 8 8 8 7 7 6 6 6 5 3 3 2 1 0 -0 -1 -1 -1 -2 -2 -2 -3 -3 -3 -3 -4 -4 -4 -5 -5 -7 -8 -8 -8 -8 -9 -9
10 11 9 7 7 8 8 8 7 6 6 6 6 5 5 4 3 2 1 0 -0 -1 -1 -2 -2 -2 -3 -3 -3 -3 -4 -4 -4 -4 -5 -6 -7 -7 -8 -9 -9 -9 -9 -9
9 8 8 7 7 7 7 7 6 6 5 5 5 4 3 3 2 1 -0 -1 -1 -1 -2 -2 -3 -3 -3 -3 -4 -4 -4 -4 -5 -5 -6 -6 -7 -8 -9 -9 -9 -10 -10 -10
7 4 5 5 6 6 7 7 7 6 5 4 4 3 2 2 1 -0 -1 -2 -2 -2 -2 -3 -3 -3 -3 -4 -4 -4 -5 -5 -6 -6 -7 -7 -8 -9 -9 -10 -10 -10 -10 -10
11 10 9 8 7 6 6 6 6 5 5 4 3 2 2 1 1 -1 -1 -2 -2 -2 -3 -3 -3 -4 -4 -4 -5 -5 -5 -6 -6 -7 -7 -8 -9 -9 -10 -10 -10 -10 -10 -10
9 8 6 6 6 6 6 5 5 4 4 3 2 1 0 0 -0 -1 -2 -2 -2 -3 -3 -4 -4 -4 -5 -5 -5 -6 -6 -6 -7 -7 -8 -8 -9 -9 -10 -10 -11 -11 -11 -11
6 6 5 5 6 6 5 5 4 3 3 2 1 1 -0 -1 -1 -2 -2 -3 -3 -4 -4 -4 -5 -5 -5 -6 -6 -6 -7 -7 -7 -8 -8 -9 -10 -10 -11 -11 -11 -11 -11 -11
5 4 5 5 5 5 5 4 3 2 1 1 1 1 0 -1 -2 -2 -3 -3 -4 -4 -5 -5 -5 -6 -6 -6 -6 -7 -7 -8 -8 -9 -9 -10 -10 -11 -11 -11 -11 -11 -11 -11
4 4 5 5 4 3 3 3 2 2 1 0 0 -0 -1 -2 -3 -3 -4 -4 -4 -5 -5 -6 -6 -6 -6 -6 -7 -7 -8 -8 -9 -9 -10 -10 -11 -11 -11 -11 -11 -11 -11 -11
3 4 4 4 3 2 1 1 1 1 0 -0 -1 -1 -2 -3 -3 -3 -4 -5 -5 -5 -6 -6 -6 -7 -7 -7 -8 -8 -9 -9 -10 -10 -10 -11 -11 -11 -11 -11 -11 -11 -11 -11
3 4 3 3 2 1 1 -0 -0 -1 -1 -2 -2 -3 -3 -3 -4 -4 -5 -5 -6 -6 -6 -7 -7 -7 -7 -8 -8 -9 -9 -10 -10 -11 -11 -11 -11 -11 -11 -11 -11 -11 -11 -11
3 3 3 2 2 1 0 -1 -1 -2 -2 -3 -4 -4 -5 -4 -4 -5 -5 -6 -6 -7 -7 -7 -7 -8 -8 -9 -9 -10 -10 -10 -11 -11 -11 -11 -11 -11 -11 -11 -11 -11 -11 -11
3 2 2 2 2 1 -0 -1 -2 -2 -3 -3 -4 -5 -5 -5 -5 -6 -6 -7 -7 -7 -7 -7 -8 -8 -9 -9 -10 -10 -10 -11 -11 -11 -11 -11 -11 -11 -11 -11 -11 -11 -11 -11
2 1 1 0 -0 -1 -1 -2 -2 -3 -3 -3 -4 -5 -6 -6 -6 -7 -7 -7 -7 -7 -8 -8 -8 -9 -9 -10 -10 -10 -11 -11 -11 -11 -11 -11 -11 -12 -12 -12 -12 -11 -11 -11
Wind_Speed
19 20 14 15 22 24 21 14 10 10 13 13 10 11 14 15 16 16 17 17 17 16 14 13 12 11 11 10 10 11 10 9 7 6 5 5 4 2 2 3 5 6 6 7
11 12 14 14 19 22 21 18 13 10 10 8 2 6 9 13 17 18 18 17 17 15 15 15 14 13 12 11 10 10 10 8 7 6 5 4 2 2 4 5 5 6 6 7
4 3 10 9 16 18 15 12 13 11 9 4 5 7 11 14 17 19 18 16 17 16 15 14 14 15 14 12 10 10 9 7 6 6 5 3 3 4 4 5 5 6 7 7
4 2 1 2 9 14 13 12 12 9 5 6 7 7 6 2 9 12 13 15 14 14 13 12 11 13 12 11 10 9 8 7 6 5 4 3 3 3 4 4 5 5 7 8
3 4 4 2 3 7 8 5 7 9 6 7 8 7 8 8 2 8 9 12 12 12 13 13 14 14 13 11 9 9 8 7 6 5 4 2 2 3 3 4 5 5 6 8
3 3 2 3 2 1 4 2 3 9 12 10 8 6 1 4 8 13 13 13 14 14 15 14 12 13 13 11 9 8 7 6 5 4 3 2 3 3 3 4 5 7 7 7
1 2 6 6 3 2 5 5 1 6 9 9 5 6 9 8 11 14 15 15 15 15 13 12 12 12 12 10 8 7 7 6 5 3 2 2 3 3 5 5 6 6 7 7
4 3 7 3 3 3 4 1 4 5 6 10 14 16 12 11 14 15 15 14 14 14 12 9 10 12 11 9 7 7 6 5 4 3 3 4 4 5 5 5 6 6 6 7
7 7 3 2 1 1 3 4 4 6 12 19 17 13 12 10 12 12 13 12 11 14 12 8 8 11 11 8 7 7 6 5 4 4 4 4 4 5 5 5 5 6 6 6
4 6 2 1 2 3 4 5 7 11 15 17 17 14 13 12 11 10 11 11 11 12 11 8 7 8 8 7 7 7 6 4 4 3 3 4 3 4 4 5 6 6 6 8
5 3 2 2 2 5 7 12 13 11 11 15 18 15 12 12 11 10 10 8 9 10 10 9 8 8 7 7 7 7 5 4 3 2 3 4 4 3 5 4 7 9 6 6
8 8 8 7 7 9 12 12 14 15 11 10 13 13 12 10 8 9 10 9 10 9 10 9 8 8 7 6 7 6 4 2 1 2 3 3 4 5 9 11 15 16 16 15
4 5 5 8 8 8 10 11 12 13 13 12 9 12 11 8 7 8 9 10 10 10 9 8 8 7 6 6 6 5 2 0 2 2 3 4 4 5 7 9 13 15 18 19
7 8 7 6 7 10 14 15 14 13 12 12 11 11 11 9 9 9 9 9 9 9 9 8 8 7 5 6 5 4 1 1 3 3 3 4 4 5 6 7 9 8 12 17
4 5 10 13 14 14 14 16 17 14 12 11 10 11 11 11 9 8 8 9 10 9 8 8 8 6 5 5 5 3 1 2 3 3 3 4 4 5 6 7 8 9 8 10
10 12 16 18 17 15 16 17 17 13 11 10 11 10 9 10 9 9 8 9 10 9 8 8 7 6 5 4 4 3 3 6 6 4 4 4 5 5 6 6 8 9 9 10
13 12 13 17 16 16 14 14 15 15 13 12 11 11 11 11 10 9 7 7 8 7 7 7 7 5 4 4 3 2 3 4 8 5 4 5 5 5 5 7 7 8 8 12
9 12 17 21 21 18 14 13 13 14 13 11 12 11 11 10 9 8 8 8 9 8 6 6 6 5 4 3 3 2 3 3 4 4 4 5 5 5 6 7 8 9 10 12
12 14 15 15 15 16 15 13 13 12 12 12 12 11 9 8 8 8 8 8 8 7 4 4 6 5 4 4 3 2 3 4 4 4 4 8 8 6 6 7 8 9 10 11
14 17 18 17 15 16 16 14 13 12 11 11 11 11 9 8 8 8 8 6 4 4 4 4 5 4 2 3 4 2 4 4 4 4 4 5 5 6 7 8 9 10 10 10
18 19 20 18 16 14 14 14 14 13 10 10 11 11 10 9 8 8 8 6 3 4 4 5 4 1 1 3 4 3 4 4 4 4 5 5 6 7 7 8 9 10 10 11
18 19 20 19 18 14 10 10 11 12 11 11 11 11 11 10 9 8 6 5 4 6 5 3 1 3 4 4 3 3 4 4 4 4 5 5 6 7 7 8 8 9 10 10
17 18 18 18 17 15 12 10 10 11 11 11 10 10 9 8 6 6 5 2 3 6 4 2 3 5 7 4 3 4 4 5 5 5 6 6 6 6 7 8 8 9 9 9
17 17 17 16 16 16 14 10 10 10 10 10 9 9 9 8 6 5 4 6 6 6 3 4 6 7 7 4 4 4 4 5 5 6 6 6 6 6 7 8 8 8 9 10
16 16 17 16 14 12 12 12 12 11 11 9 9 8 6 5 5 4 5 5 6 5 3 5 8 8 5 4 4 5 5 5 7 6 5 6 7 7 7 8 8 9 9 9
15 13 10 10 10 11 11 10 9 8 9 9 8 6 6 6 6 5 4 5 5 5 3 3 4 6 4 5 5 5 5 7 8 7 7 8 8 8 8 8 9 9 9 9
13 11 11 11 9 8 8 9 10 9 8 9 8 5 5 5 5 4 4 3 3 3 3 3 4 4 5 5 5 5 5 6 7 7 7 7 7 7 8 9 9 9 9 10
Wind_Direction
254 255 236 206 198 198 204 209 217 243 251 247 207 177 168 159 156 157 163 164 164 161 156 151 145 140 136 131 129 130 127 128 135 138 132 123 110 75 21 359 352 347 343 334
270 240 208 196 193 197 204 209 218 240 262 261 145 114 140 156 162 168 172 170 165 160 156 154 148 143 138 134 133 132 132 134 135 132 127 122 103 47 17 3 355 353 342 328
316 149 157 180 191 193 197 201 203 216 229 193 135 140 158 167 172 176 173 166 164 162 159 154 149 146 144 141 135 131 131 133 134 134 130 114 71 38 13 355 348 337 326 321
322 36 76 202 182 187 192 200 194 199 209 164 131 100 57 44 178 169 160 157 153 149 143 138 134 135 131 132 132 131 132 135 139 136 126 97 57 21 350 335 331 316 311 312
343 346 329 359 111 164 174 196 197 182 154 124 131 86 30 3 107 136 133 135 136 135 132 130 133 134 130 128 129 130 135 140 140 134 122 84 23 348 330 321 316 306 304 309
355 360 314 301 344 263 137 194 195 168 162 162 139 127 184 18 87 100 104 114 118 119 121 125 130 131 130 132 132 135 139 138 135 128 114 57 353 329 317 310 301 305 308 311
207 295 278 266 303 76 142 222 232 167 163 152 130 135 126 100 91 99 104 108 113 116 120 127 128 127 127 128 134 135 130 127 123 109 75 27 356 327 314 311 311 313 310 310
171 220 262 287 97 152 202 56 64 102 112 110 110 109 110 106 104 104 104 106 111 113 113 115 122 124 124 130 133 127 123 119 104 72 32 21 357 328 319 319 319 318 317 316
194 215 264 325 135 106 127 109 100 106 123 125 120 118 114 108 106 105 107 106 108 114 112 106 113 124 129 138 133 123 114 101 76 48 26 10 345 326 323 325 323 319 318 321
243 263 266 2 48 59 82 105 112 126 129 129 125 126 122 118 113 108 109 109 113 113 115 112 113 116 127 133 124 114 104 86 64 39 6 348 334 321 324 325 324 322 327 328
239 261 109 243 162 114 96 106 108 105 113 127 125 125 125 123 120 119 118 114 116 120 124 124 121 117 117 116 110 104 96 78 47 7 333 323 325 327 335 318 326 334 325 318
212 204 186 198 160 135 127 128 128 120 106 108 123 125 125 123 120 121 123 121 120 121 125 127 124 119 112 108 109 109 101 75 339 308 306 318 329 333 346 342 337 337 336 334
189 142 118 122 120 117 122 124 123 121 124 118 109 119 119 114 113 115 121 130 134 137 135 131 125 121 118 111 107 111 125 239 293 313 323 332 335 330 327 330 332 334 334 333
125 113 111 125 124 118 117 113 105 99 100 107 110 110 110 109 113 118 127 135 132 128 127 128 126 125 123 117 117 124 130 345 348 332 330 325 319 312 311 318 323 321 326 328
73 113 131 122 117 117 117 117 111 108 106 101 105 111 115 119 119 117 117 116 116 115 120 124 125 128 127 128 128 115 54 352 346 339 329 317 310 306 307 313 319 319 317 324
93 99 117 124 128 128 127 126 126 126 122 118 115 112 110 111 109 107 111 120 124 128 131 128 131 138 136 127 112 80 29 3 2 350 334 322 313 311 316 320 321 320 321 326
126 133 136 138 140 138 136 136 137 137 132 130 127 122 115 111 107 107 108 111 115 119 124 126 129 130 122 112 96 64 19 353 355 345 321 310 307 311 319 321 319 319 319 324
152 154 156 152 147 140 130 128 131 134 133 131 128 125 126 129 131 127 119 109 99 91 93 114 123 116 100 95 84 38 1 339 328 319 313 310 319 326 323 319 318 319 322 324
120 125 126 127 131 131 131 131 130 128 128 130 132 133 133 129 127 124 118 113 115 114 115 121 116 97 75 38 53 23 348 332 324 318 315 330 335 323 322 322 322 322 321 324
119 122 121 120 122 127 129 128 127 126 126 128 126 123 120 120 120 115 105 94 96 127 132 111 95 89 64 356 16 8 340 327 320 319 319 321 320 319 321 323 323 321 321 322
128 126 124 123 118 116 123 128 130 128 125 125 127 126 122 116 114 113 109 99 73 92 96 97 95 93 296 346 21 0 338 331 328 326 324 322 320 316 314 314 317 320 320 321
131 129 125 123 120 114 108 112 119 121 118 114 112 115 115 113 108 96 88 108 110 102 85 70 47 322 351 39 21 354 347 341 333 326 319 316 314 312 311 311 312 316 317 317
129 126 124 123 122 116 103 99 105 113 116 118 120 121 118 115 113 116 111 101 86 86 73 21 353 2 30 40 5 356 348 338 329 320 312 303 299 298 302 306 309 312 312 314
122 119 117 116 115 113 108 100 97 101 102 101 102 108 113 107 82 66 93 108 104 86 48 16 15 19 26 13 353 344 335 324 312 301 298 297 297 298 300 305 308 310 311 312
119 119 120 121 120 120 121 116 107 102 99 95 87 79 77 90 107 100 80 69 83 84 45 15 16 14 12 345 338 328 320 310 306 308 310 308 304 304 306 307 309 310 310 308
123 121 118 116 124 130 132 128 123 120 117 109 97 86 84 82 88 87 80 66 58 60 41 4 351 356 343 331 323 318 316 317 320 314 303 304 304 306 307 308 306 306 305 302
109 111 112 111 114 121 126 127 127 126 124 121 113 97 92 90 88 86 82 63 39 19 358 344 340 336 329 323 322 322 318 310 306 305 303 301 300 301 302 302 302 301 300 299
Height
1395 1389 1389 1388 1391 1396 1403 1404 1406 1399 1394 1381 1375 1374 1377 1383 1390 1397 1404 1408 1413 1419 1426 1433 1439 1444 1448 1452 1456 1459 1462 1464 1466 1468 1469 1469 1469 1468 1466 1464 1462 1459 1456 1452
1381 1373 1377 1380 1384 1389 1395 1399 1400 1397 1391 1376 1375 1375 1379 1384 1390 1396 1401 1406 1412 1418 1424 1430 1436 1441 1446 1451 1454 1458 1460 1462 1464 1465 1466 1466 1466 1464 1463 1461 1459 1456 1451 1447
1375 1368 1373 1378 1377 1382 1386 1387 1390 1391 1383 1375 1376 1377 1380 1384 1388 1392 1397 1403 1409 1416 1422 1429 1435 1440 1445 1449 1453 1456 1458 1460 1462 1463 1464 1464 1462 1461 1460 1457 1455 1451 1447 1442
1380 1374 1375 1371 1366 1371 1376 1378 1379 1378 1376 1374 1376 1380 1383 1386 1389 1392 1396 1402 1409 1415 1423 1429 1435 1440 1445 1448 1451 1454 1456 1458 1460 1461 1461 1461 1459 1458 1456 1454 1451 1447 1442 1437
1386 1380 1373 1365 1365 1367 1371 1373 1373 1375 1376 1377 1378 1380 1386 1387 1390 1394 1398 1403 1409 1416 1423 1429 1435 1439 1443 1447 1450 1452 1454 1456 1458 1459 1458 1458 1457 1455 1453 1450 1446 1442 1437 1432
1388 1384 1381 1369 1363 1363 1367 1372 1368 1369 1373 1375 1377 1386 1391 1389 1391 1395 1400 1406 1412 1419 1425 1430 1435 1439 1443 1446 1448 1451 1453 1455 1456 1456 1456 1455 1454 1452 1449 1445 1441 1437 1433 1428
1389 1388 1380 1367 1363 1364 1375 1371 1365 1366 1368 1372 1376 1381 1388 1390 1394 1398 1403 1409 1415 1421 1426 1431 1435 1439 1442 1444 1447 1450 1452 1453 1454 1454 1453 1452 1451 1448 1445 1441 1437 1433 1428 1423
1386 1387 1383 1365 1364 1368 1368 1365 1364 1365 1368 1373 1377 1383 1389 1394 1398 1402 1407 1413 1418 1422 1427 1432 1436 1439 1441 1444 1446 1449 1450 1451 1452 1452 1451 1450 1447 1444 1441 1436 1432 1427 1422 1417
1377 1376 1369 1365 1365 1365 1365 1366 1366 1367 1370 1373 1379 1387 1392 1397 1402 1407 1411 1415 1420 1424 1428 1432 1436 1439 1441 1444 1446 1448 1449 1450 1450 1449 1448 1446 1443 1440 1436 1431 1426 1421 1416 1412
1372 1369 1367 1367 1366 1366 1367 1368 1369 1371 1374 1377 1382 1389 1395 1401 1405 1410 1414 1418 1422 1425 1429 1432 1436 1439 1442 1443 1445 1447 1447 1448 1448 1447 1445 1443 1439 1435 1431 1426 1422 1417 1413 1408
1370 1367 1367 1367 1367 1368 1370 1372 1374 1377 1380 1383 1387 1394 1399 1404 1408 1413 1416 1420 1424 1427 1430 1433 1436 1439 1441 1443 1444 1445 1446 1446 1445 1444 1442 1439 1436 1432 1427 1423 1420 1415 1410 1405
1364 1361 1363 1363 1365 1369 1371 1374 1377 1381 1385 1390 1393 1397 1402 1407 1411 1415 1418 1421 1424 1428 1431 1433 1436 1439 1440 1442 1443 1444 1444 1444 1443 1441 1438 1435 1431 1429 1425 1421 1417 1413 1408 1403
1355 1356 1359 1361 1366 1370 1373 1377 1381 1385 1389 1394 1399 1402 1405 1409 1413 1416 1419 1422 1425 1428 1431 1434 1436 1438 1440 1441 1442 1442 1442 1441 1440 1437 1434 1431 1427 1423 1420 1416 1413 1409 1404 1399
1353 1355 1360 1363 1367 1371 1375 1380 1385 1390 1394 1398 1401 1405 1408 1411 1414 1417 1420 1423 1426 1429 1431 1434 1436 1438 1439 1440 1440 1440 1440 1438 1437 1434 1431 1428 1424 1420 1416 1411 1407 1403 1399 1395
1353 1354 1356 1361 1367 1373 1378 1382 1387 1392 1397 1401 1404 1407 1410 1412 1415 1418 1421 1423 1426 1429 1431 1434 1436 1437 1438 1438 1438 1438 1437 1436 1433 1431 1428 1425 1421 1417 1413 1408 1403 1398 1393 1389
1353 1355 1357 1362 1367 1374 1379 1384 1388 1393 1398 1402 1405 1409 1411 1414 1416 1419 1422 1424 1427 1429 1431 1433 1435 1436 1437 1437 1437 1436 1434 1432 1430 1427 1424 1421 1417 1413 1409 1404 1400 1395 1390 1385
1351 1356 1359 1363 1369 1374 1380 1385 1389 1394 1399 1403 1406 1409 1412 1415 1417 1420 1423 1425 1428 1430 1431 1433 1434 1435 1435 1435 1435 1433 1432 1429 1427 1424 1421 1417 1413 1409 1405 1401 1397 1392 1387 1382
1351 1352 1355 1359 1365 1374 1381 1387 1392 1396 1400 1404 1407 1410 1413 1416 1418 1420 1423 1425 1428 1429 1431 1433 1434 1434 1434 1433 1432 1431 1428 1426 1423 1420 1417 1413 1410 1406 1402 1398 1393 1389 1383 1379
1351 1355 1360 1366 1371 1377 1383 1389 1394 1398 1402 1405 1408 1411 1415 1417 1419 1421 1424 1426 1428 1429 1431 1432 1433 1433 1432 1431 1429 1427 1425 1422 1420 1416 1413 1410 1406 1403 1398 1394 1390 1385 1380 1375
1353 1357 1362 1369 1376 1382 1387 1392 1396 1400 1403 1407 1410 1412 1415 1418 1420 1422 1424 1426 1428 1429 1430 1431 1431 1431 1430 1428 1426 1424 1421 1418 1416 1412 1409 1406 1402 1399 1395 1391 1386 1381 1376 1371
1353 1359 1365 1372 1379 1385 1390 1394 1397 1401 1405 1409 1411 1413 1415 1418 1420 1422 1424 1426 1428 1429 1429 1429 1429 1428 1427 1425 1423 1420 1418 1415 1412 1408 1405 1402 1398 1395 1391 1387 1382 1378 1373 1368
1355 1361 1368 1374 1380 1387 1392 1397 1400 1403 1406 1409 1412 1414 1416 1418 1420 1423 1425 1426 1427 1428 1428 1428 1427 1426 1424 1422 1419 1417 1414 1411 1408 1404 1401 1398 1394 1390 1386 1382 1378 1373 1369 1364
1358 1364 1370 1377 1382 1388 1394 1399 1402 1405 1407 1410 1412 1414 1417 1419 1421 1423 1424 1426 1426 1426 1426 1426 1424 1423 1421 1418 1416 1413 1410 1407 1404 1400 1397 1394 1390 1386 1382 1377 1373 1369 1365 1361
1361 1367 1374 1380 1385 1390 1394 1399 1403 1406 1409 1411 1413 1416 1418 1419 1421 1422 1424 1425 1425 1425 1424 1423 1422 1420 1417 1415 1412 1409 1406 1403 1400 1396 1393 1389 1386 1381 1377 1373 1368 1364 1360 1357
1366 1372 1378 1383 1387 1392 1396 1400 1404 1407 1409 1411 1414 1416 1418 1420 1422 1423 1424 1424 1424 1423 1422 1421 1419 1417 1414 1411 1408 1405 1402 1399 1396 1392 1388 1385 1381 1376 1372 1368 1364 1360 1356 1353
1371 1377 1382 1386 1390 1393 1397 1400 1403 1407 1409 1412 1414 1417 1419 1421 1422 1423 1423 1423 1422 1421 1420 1418 1416 1413 1410 1408 1405 1402 1399 1395 1392 1388 1384 1380 1376 1372 1368 1364 1360 1357 1353 1350
1375 1380 1385 1389 1393 1396 1399 1402 1405 1408 1411 1413 1415 1418 1419 1421 1422 1422 1422 1421 1421 1419 1417 1415 1413 1410 1407 1404 1401 1398 1395 1391 1387 1384 1380 1376 1372 1368 1364 1361 1357 1354 1350 1347